#timestamp,LO_Frequency,Hit 
1500847215.1,286046998.2,N
1500847235.9,286046999.4,N
1500847255.7,286046998.4,N
1500847275.5,286047000.7,N
1500847295.3,286046998.8,N
1500847315.2,286046998.5,N
1500847335.9,286046998.2,N
1500847355.7,286046999.4,N
1500847375.6,286046998.4,N
1500847395.4,286046998.2,N
1500847415.2,286046998.9,N
1500847435.1,286046996.8,Y
1500847436.0,286046996.8,Y
1500847455.8,286047000.7,N
1500847475.6,286046998.6,N
1500847495.5,286046998.9,N
1500847515.3,286046998.6,N
1500847535.1,286046998.8,N
1500847555.9,286046997.3,N
1500847575.7,286046998.9,N
1500847595.5,286046997.2,N
1500847615.4,286046996.9,Y
1500847635.2,286047000.9,N
1500847655.0,286047001.1,N
1500847655.9,286047001.1,N
1500847675.8,286046999.3,N
1500847695.6,286046999.3,N
1500847715.4,286046999.1,N
1500847735.2,286046998.8,N
1500847755.1,286046999.0,N
1500847756.0,286046999.0,N
1500847775.8,286046998.1,N
1500847795.6,286047002.8,N
1500847815.5,286047002.1,N
1500847835.3,286047003.8,N
1500847855.1,286047005.8,Y
1500847875.9,286047005.9,N
1500847895.7,286047004.3,N
1500847915.5,286047004.3,N
1500847935.4,286047005.9,N
1500847955.2,286047005.2,N
1500847975.0,286047003.0,N
1500847975.9,286047003.0,N
1500847995.8,286047004.8,N
1500848015.6,286047005.0,N
1500848035.4,286047007.4,N
1500848055.2,286047005.4,N
1500848075.1,286047005.1,N
1500848076.0,286047005.1,N
1500848095.8,286047007.4,N
1500848115.6,286047007.2,N
1500848135.5,286047007.1,Y
1500848155.3,286047002.0,N
1500848175.1,286047001.5,N
1500848195.9,286047003.5,N
1500848215.7,286047003.9,N
1500848235.5,286047002.6,N
1500848255.4,286047002.6,N
1500848275.2,286047001.9,N
1500848295.0,286047002.0,N
1500848295.9,286047002.0,N
1500848315.8,286047002.0,N
1500848335.6,286047002.7,N
1500848355.4,286047002.2,N
1500848375.3,286047002.0,N
1500848395.1,286047002.1,N
1500848396.0,286047002.1,N
1500848415.8,286047000.8,N
1500848435.6,286047000.8,N
1500848455.5,286047002.3,N
1500848475.3,286047002.4,N
1500848495.1,286047001.2,N
1500848515.9,286047002.7,N
1500848535.7,286047000.8,N
1500848555.5,286046999.6,N
1500848575.4,286046998.7,N
1500848595.2,286047002.7,N
1500848615.0,286047001.5,N
1500848615.9,286047001.5,N
1500848635.8,286047005.5,Y
1500848655.6,286047002.3,N
1500848675.4,286047002.5,N
1500848695.3,286046999.8,N
1500848715.1,286047000.3,N
1500848716.0,286047000.3,N
1500848735.8,286046998.4,N
1500848755.6,286046998.2,N
1500848775.5,286046998.3,N
1500848795.3,286047000.8,N
1500848815.1,286047001.1,N
1500848835.9,286047001.1,N
1500848855.7,286046998.3,N
1500848875.5,286046998.5,N
1500848895.4,286046998.1,N
1500848915.2,286046996.6,N
1500848935.0,286046997.7,N
1500848935.9,286046997.7,N
1500848955.8,286046998.5,N
1500848975.6,286046999.0,N
1500848995.4,286046996.6,N
1500849015.2,286046998.3,N
1500849035.1,286046999.5,N
1500849036.0,286046999.5,N
1500849055.8,286046999.5,N
1500849075.6,286046998.3,N
1500849095.5,286047001.0,N
1500849115.3,286047001.2,N
1500849135.1,286046999.9,N
1500849155.9,286047002.3,N
1500849175.7,286047002.3,N
1500849195.5,286047002.2,N
1500849215.3,286047001.9,N
1500849235.2,286047002.2,N
1500849255.0,286046999.8,N
1500849255.9,286046999.8,N
1500849275.7,286047004.9,N
1500849295.6,286047004.0,N
1500849315.4,286047004.8,N
1500849335.2,286047002.9,N
1500849355.1,286047005.4,N
1500849356.0,286047005.4,N
1500849375.8,286047004.2,N
1500849395.6,286047004.9,N
1500849415.5,286047007.0,Y
1500849435.3,286047005.5,N
1500849455.1,286047003.8,N
1500849475.9,286047004.3,N
1500849495.7,286047004.3,N
1500849515.5,286047004.1,N
1500849535.4,286047004.1,N
1500849555.2,286047004.1,N
1500849575.0,286047002.8,N
1500849575.9,286047002.8,N
1500849595.7,286046999.0,N
1500849615.6,286047000.8,N
1500849635.4,286047000.8,N
1500849655.2,286046998.1,N
1500849675.1,286047000.6,N
1500849676.0,286047000.6,N
1500849695.8,286046998.7,N
1500849715.6,286047000.8,N
1500849735.5,286047004.0,N
1500849755.3,286047004.2,N
1500849775.1,286047003.7,N
1500849795.9,286047006.8,N
1500849815.7,286047004.7,N
1500849835.5,286047006.8,N
1500849855.3,286047005.0,N
1500849875.2,286047007.1,N
1500849895.0,286047008.7,Y
1500849895.9,286047008.7,Y
1500849915.8,286047002.8,N
1500849935.6,286046999.9,N
1500849955.4,286047001.1,N
1500849975.2,286047002.7,N
1500849995.1,286047004.4,N
1500849996.0,286047004.4,N
1500850015.8,286047002.7,N
1500850035.6,286047001.6,N
1500850055.5,286047004.4,N
1500850075.3,286047002.7,N
1500850095.1,286047004.2,N
1500850115.9,286047001.5,N
1500850135.7,286047000.0,N
1500850155.5,286047002.0,N
1500850175.4,286046998.7,N
1500850195.2,286046996.5,N
1500850215.0,286046999.1,N
1500850215.9,286046999.1,N
1500850235.7,286046999.3,N
1500850255.6,286046997.4,N
1500850275.4,286046998.4,N
1500850295.2,286046998.4,N
1500850315.1,286046996.5,N
1500850316.0,286046996.5,N
1500850335.8,286047000.6,N
1500850355.6,286047002.0,N
1500850375.5,286047002.8,N
1500850395.3,286047000.6,N
1500850415.1,286046999.8,N
1500850435.9,286046999.8,N
1500850455.7,286047000.0,N
1500850475.5,286046998.1,N
1500850495.3,286046997.0,N
1500850515.2,286047000.7,N
1500850535.0,286046997.1,N
1500850535.9,286046997.1,N
1500850555.7,286046999.4,N
1500850575.6,286046998.6,N
1500850595.4,286046999.2,N
1500850615.2,286046999.3,N
1500850635.1,286047000.5,N
1500850636.0,286047000.5,N
1500850655.8,286047000.4,N
1500850675.6,286046999.9,N
1500850695.5,286046996.6,N
1500850715.3,286046997.0,N
1500850735.1,286046998.7,N
1500850755.8,286046997.7,N
1500850775.7,286046996.7,N
1500850795.5,286046996.9,N
